User: anonymous   Login
Location: Unspecified
(0.0000°N, 0.0000°E)
Time: 21:11:27
(UTC+00:00)
Language:

UWE-3 - Orbit

View from above orbital plane
View from above orbital plane
View from above satellite
View from above satellite

Ground track
Ground track

The orbit data is extracted from the following two-line orbital elements,

1 39446U 13066AG  24205.60578664  .00008394  00000-0  92173-3 0  9996
2 39446  97.7825 154.5775 0061901  99.7180 261.1034 14.86500750574112
Epoch (UTC): 23 July 2024 14:32:19
Eccentricity: 0.0061901
inclination: 97.7825°
perigee height: 565 km
apogee height: 652 km
right ascension of ascending node: 154.5775°
argument of perigee: 99.7180°
revolutions per day: 14.86500750
mean anomaly at epoch: 261.1034°
orbit number at epoch: 57411

The dashed part of the orbit path shows where the satellite is in the earth's shadow,  

DLR